EW8203 Weather Reports


time (UTC)temp
C
wind
direction
speed
KPH
gust
KPH
rain 1hr
cm
rain 24hr
cm
rain mn
cm
humidity
%
barometer
mb
20260906040025 29 49 1.6 8.0 0.00 0.00 0.00 67 1012.3
20260906034518 29 66 0.0 4.8 0.00 0.00 0.00 66 1012.2
20260906033034 30 52 0.0 6.4 0.00 0.00 0.00 64 1012.2
20260906031516 30 65 1.6 4.8 0.00 0.00 0.00 63 1011.9
20260906030016 30 53 1.6 4.8 0.00 0.00 0.00 62 1011.8
20260906024515 30 39 1.6 4.8 0.00 0.00 0.00 61 1011.7
20260906023015 31 62 1.6 6.4 0.00 0.00 0.00 60 1011.4
20260906021515 31 54 3.2 6.4 0.00 0.00 0.00 59 1011.2
20260906020015 31 46 0.0 3.2 0.00 0.00 0.00 59 1011.0
20260906014514 31 57 1.6 8.0 0.00 0.00 0.00 58 1010.8
20260906013014 31 28 0.0 3.2 0.00 0.00 0.00 58 1010.7
20260906011513 32 76 0.0 4.8 0.00 0.00 0.00 58 1010.6
20260906010013 32 64 1.6 4.8 0.00 0.00 0.00 57 1010.5
20260906004512 32 57 1.6 4.8 0.00 0.00 0.00 55 1010.4
20260906003012 33 33 1.6 6.4 0.00 0.00 0.00 54 1010.3
20260906001510 34 63 1.6 6.4 0.00 0.00 0.00 50 1010.4
20260906000011 35 38 0.0 3.2 0.00 0.00 0.00 48 1010.3
20260905234509 35 28 0.0 3.2 0.00 0.00 0.00 47 1010.4
20260905233009 36 40 0.0 4.8 0.00 0.00 0.00 45 1010.3
20260905231508 36 355 0.0 4.8 0.00 0.00 0.00 44 1010.3
20260905230008 36 14 0.0 3.2 0.00 0.00 0.00 44 1010.6
20260905224508 37 80 0.0 4.8 0.00 0.00 0.00 45 1010.4
20260905223008 37 132 1.6 14.5 0.00 0.00 0.00 43 1010.4
20260905221506 37 148 0.0 3.2 0.00 0.00 0.00 42 1010.3
20260905220006 37 120 0.0 14.5 0.00 0.00 0.00 40 1010.4
20260905214505 37 240 0.0 4.8 0.00 0.00 0.00 41 1010.3
20260905213004 37 305 0.0 4.8 0.00 0.00 0.00 39 1010.4
20260905211506 37 67 0.0 3.2 0.00 0.00 0.00 38 1010.5
20260905210002 38 94 0.0 9.7 0.00 0.00 0.00 36 1010.5
20260905204506 40 118 0.0 3.2 0.00 0.00 0.00 36 1010.6
20260905203002 39 53 0.0 0.0 0.00 0.00 0.00 37 1010.6
20260905201601 39 110 0.0 4.8 0.00 0.00 0.00 37 1010.8
20260905194600 38 42 0.0 8.0 0.00 0.00 0.00 38 1011.1
20260905193055 39 120 0.0 8.0 0.00 0.00 0.00 37 1011.5
20260905191553 39 146 0.0 3.2 0.00 0.00 0.00 37 1011.7
20260905190053 39 103 0.0 4.8 0.00 0.00 0.00 38 1011.7
20260905184548 38 111 0.0 3.2 0.00 0.00 0.00 39 1011.8
20260905183045 38 90 0.0 8.0 0.00 0.00 0.00 40 1012.1
20260905181602 38 5 0.0 1.6 0.00 0.00 0.00 41 1012.3
20260905180040 38 139 0.0 4.8 0.00 0.00 0.00 44 1012.2
20260905174547 37 355 0.0 12.9 0.00 0.00 0.00 46 1012.4
20260905173034 37 206 0.0 1.6 0.00 0.00 0.00 46 1012.5
20260905171537 37 120 0.0 4.8 0.00 0.00 0.00 47 1012.5
20260905170023 37 344 0.0 3.2 0.00 0.00 0.00 47 1012.8
20260905164519 36 316 0.0 4.8 0.00 0.00 0.00 49 1012.9
20260905163016 35 296 0.0 6.4 0.00 0.00 0.00 50 1013.1
20260905161510 35 283 1.6 8.0 0.00 0.00 0.00 53 1013.1
20260905160010 34 345 0.0 4.8 0.00 0.00 0.00 55 1013.2
20260905154503 33 300 0.0 4.8 0.00 0.00 0.00 56 1013.3
20260905153102 33 341 0.0 4.8 0.00 0.00 0.00 57 1013.4
20260905151603 33 246 0.0 4.8 0.00 0.00 0.00 58 1013.4
20260905150054 32 290 0.0 6.4 0.00 0.00 0.00 60 1013.3
20260905144551 31 63 0.0 4.8 0.00 0.00 0.00 61 1013.2
20260905143049 31 323 1.6 12.9 0.00 0.00 0.00 62 1013.3
20260905141545 30 297 3.2 8.0 0.00 0.00 0.00 63 1013.1
20260905140041 30 246 3.2 11.3 0.00 0.00 0.00 66 1013.0
20260905134539 29 282 1.6 11.3 0.00 0.00 0.00 68 1013.0
20260905133041 28 290 3.2 12.9 0.00 0.00 0.00 70 1013.0
20260905131538 28 256 3.2 12.9 0.00 0.00 0.00 70 1012.9
20260905130037 27 242 3.2 9.7 0.00 0.00 0.00 71 1012.9
20260905124541 27 265 1.6 12.9 0.00 0.00 0.00 73 1012.8
20260905123037 27 257 3.2 8.0 0.00 0.00 0.00 73 1012.8
20260905121533 27 247 3.2 12.9 0.00 0.00 0.00 74 1012.6
20260905120034 27 278 3.2 8.0 0.00 0.00 0.00 74 1012.5
20260905114534 27 273 3.2 6.4 0.00 0.00 0.00 74 1012.5
20260905113032 27 254 1.6 9.7 0.00 0.00 0.00 74 1012.3
20260905111532 27 269 0.0 9.7 0.00 0.00 0.00 74 1012.2
20260905110031 27 257 1.6 6.4 0.00 0.00 0.00 74 1012.2
20260905104529 27 248 1.6 6.4 0.00 0.00 0.00 74 1012.1
20260905103032 27 246 1.6 6.4 0.00 0.00 0.00 74 1012.1
20260905101528 27 253 1.6 4.8 0.00 0.00 0.00 74 1012.2
20260905100027 27 244 0.0 4.8 0.00 0.00 0.00 73 1012.1
20260905094534 27 263 0.0 4.8 0.00 0.00 0.00 74 1012.1
20260905093025 27 257 1.6 4.8 0.00 0.00 0.00 74 1012.1
20260905091559 27 272 0.0 4.8 0.00 0.00 0.00 74 1012.0
20260905090023 27 269 0.0 4.8 0.00 0.00 0.00 74 1012.1
20260905084521 27 281 1.6 6.4 0.00 0.00 0.00 73 1012.1
20260905083021 28 263 3.2 9.7 0.00 0.00 0.00 72 1012.1
20260905081517 28 264 1.6 6.4 0.00 0.00 0.00 72 1012.2
20260905080017 28 269 0.0 4.8 0.00 0.00 0.00 71 1012.2
20260905074517 28 184 0.0 3.2 0.00 0.00 0.00 70 1012.2
20260905073014 28 241 1.6 4.8 0.00 0.00 0.00 70 1012.3
20260905071512 28 259 1.6 11.3 0.00 0.00 0.00 69 1012.4
20260905070016 28 265 0.0 4.8 0.00 0.00 0.00 68 1012.5
20260905064510 28 251 0.0 3.2 0.00 0.00 0.00 68 1012.5
20260905063009 28 242 0.0 3.2 0.00 0.00 0.00 68 1012.4
20260905061507 28 241 0.0 4.8 0.00 0.00 0.00 68 1012.5
20260905060009 28 256 1.6 6.4 0.00 0.00 0.00 67 1012.6
20260905054502 29 241 0.0 6.4 0.00 0.00 0.00 66 1012.5
20260905053002 29 309 0.0 6.4 0.00 0.00 0.00 65 1012.8
20260905051600 29 238 0.0 4.8 0.00 0.00 0.00 65 1012.7
20260905050058 30 252 0.0 4.8 0.00 0.00 0.00 64 1012.5
20260905044556 30 233 0.0 6.4 0.00 0.00 0.00 64 1012.4
20260905043057 30 205 1.6 4.8 0.00 0.00 0.00 63 1012.4
20260905041602 30 230 1.6 6.4 0.00 0.00 0.00 62 1012.3